Orbital Elements at Epoch 2459200.5 (2020-Dec-17.0) TDB
Reference: JPL 28 (heliocentric ecliptic J2000)
Element | Value | Uncertainty (1-sigma) | Units |
e | .1427756574381978 | 4.1138e-08 | |
a | 2.531596934546998 | 9.3925e-09 | au |
q | 2.170146517848524 | 1.0373e-07 | au |
i | 2.198506986178049 | 3.752e-06 | deg |
node | 289.6643300755275 | 0.00014164 | deg |
peri | 169.0911131539848 | 0.00014293 | deg |
M | 241.3444705506458 | 2.0728e-05 | deg |
tp | 2459685.426311808526 (2022-Apr-15.92631181) | 8.5446e-05 | TDB |
period | 1471.262848526436 4.03 | 8.1878e-06 2.242e-08 | d yr |
n | .2446877526748963 | 1.3617e-09 | deg/d |
Q | 2.893047351245471 | 1.0733e-08 | au |
|
| | Orbit Determination Parameters
Additional Information
|